IRVINE01 (43693 NORAD) Tracking and Keplerian Element Data

This shows tracking and keplerian element data for the satellite.

Feedback or suggestion? Click here.




ElementValue
Catalog43693
NameIRVINE01
Epoch Orbit22440
Epoch Day325.14023572
Epoch Year2022
RAAN203.518
Inclination85.0247
Eccentricity0.0002424
Argument of Perigee184.9892
Mean Anonmoly175.1345
Mean Motion15.56756981
Decay Rate0.00090189
L11 43693U 18088D 22325.14023572 .00090189 00000+0 12498-2 0 9990
L22 43693 85.0247 203.5180 0002424 184.9892 175.1345 15.56756981224406



Live tracking and technical data element details for IRVINE01 (NORAD 43693). IRVINE01 can be tracked NOW for your location showing map with azimuth and elevation plus other details from your city location.







IsCatalogInMostPopularTable: catalog: 43693, numindb: 401
Update: records affected: 1



GetName: 43693 IRVINE01

Hit Count: updated at: Mon, 28 Nov 2022 05:29:47 GMT